Location: Unspecified
(17.6330°N, 0.0000°E)
Time: 14:48:58
(UTC+00:00)

A-11 Canister half - Pass Details

Date: 22 June 2019
Orbit: 1514 x 1686 km, 47.2° (Epoch: 24 August)

Event Time Altitude Azimuth Distance (km) Brightness Sun altitude
Rises 17:48:05 0° 319° (NW) 4,713 12.8 10.0°
Reaches altitude 10° 17:51:12 10° 322° (NW) 3,711 12.2 9.3°
Maximum altitude 18:00:30 71° 46° (NE) 1,585 9.2 7.3°
Drops below altitude 10° 18:09:40 10° 129° (SE) 3,666 10.4 5.2°
Sets 18:12:43 0° 131° (SE) 4,653 10.9 4.6°
